Terminal Aerodrome Forecast
Issued by NWS La Crosse, WI

Home | Current Version | Previous Version | Text Only | Print | Product List | Glossary On
Versions: 1 2 3 4 5 6 7 8 9 10 11 12 13 14 15 16 17 18 19 20 21 22 23 24 25 26 27 28 29 30 31 32 33 34
000
FTUS43 KARX 061327 AAB
TAFRST
TAF AMD
KRST 061327Z 0613/0712 17008KT 5SM -SHRA BR SCT008 BKN120
     FM061500 21013KT 5SM -SHRA BR BKN015
     FM061800 32014KT 5SM -SHRA BR VCTS SCT005 BKN012CB
     FM062100 34015KT P6SM BKN015
     FM062300 34012KT P6SM SCT015=

USA.gov is the U.S. government's official web portal to all federal, state and local government web resources and services.